CAPE
0 0 0 0 0 0 0 0 0 0 0 0 0 0 0 0 0 0 0 0 0 0 0 0 0 0 0 0 0 0 283 2168 2182 2093 1787 1486 1340 1210 1019 1031 1013 659 801 494
0 0 0 0 0 0 0 0 0 0 0 0 0 0 0 0 0 0 0 0 0 0 0 0 0 0 0 0 0 0 87 1618 2063 2185 2062 1780 1547 1253 1170 1012 889 854 631 438
0 0 0 0 0 0 0 0 0 0 0 0 0 0 0 0 0 0 0 0 0 0 0 0 0 0 0 0 0 0 9 790 1873 2126 1996 956 694 757 824 770 966 939 649 443
0 0 0 0 0 0 0 0 0 0 0 0 0 0 0 0 0 0 0 1 0 0 0 0 0 0 0 0 0 0 0 643 1592 2001 1883 1446 1471 1359 1297 1198 1100 1158 834 602
0 0 0 0 0 0 0 0 0 0 0 0 0 0 0 0 0 0 12 165 0 0 0 0 0 0 0 0 0 0 0 242 1334 1940 1869 1568 1410 1258 964 999 966 934 748 577
0 0 0 0 0 0 0 0 0 0 0 1 0 0 0 0 0 0 56 0 0 0 0 3 2 0 0 0 0 0 523 743 1629 2012 1828 1539 1400 1038 888 915 983 774 540 550
0 0 0 0 0 0 0 0 0 0 0 0 0 0 0 53 99 44 1 0 0 0 1 8 12 5 2 0 0 0 368 1941 1867 2029 1831 1568 1320 811 791 854 924 734 506 319
0 0 0 0 0 0 0 0 0 2 0 0 1 2 19 20 7 6 4 1 0 0 0 12 15 11 6 2 0 0 0 59 2034 1892 1716 1471 876 525 559 556 670 410 372 388
0 0 0 0 0 0 0 0 0 4 0 0 0 0 61 4 8 9 5 8 5 2 0 2 4 9 9 6 2 1 0 0 0 1599 1397 1098 440 225 282 228 225 227 85 0
3 0 0 0 0 0 0 0 24 15 17 2 0 30 3 7 13 30 8 15 12 3 0 1 1 3 6 7 7 1 1 1 2 36 794 427 263 175 56 6 0 0 0 0
0 0 0 0 0 0 14 35 5 2 6 17 0 1 19 13 15 20 12 2 9 8 2 2 1 2 2 7 4 9 2 2 5 3 6 218 145 53 18 13 0 0 0 0
0 0 0 0 0 0 0 0 36 17 0 5 27 2 40 17 12 14 4 3 2 6 1 2 1 2 6 4 2 4 12 4 3 3 1 21 29 23 24 1 0 0 0 0
1 0 0 0 0 0 17 22 23 97 39 0 14 4 17 16 1 4 5 3 2 2 2 1 1 2 2 3 4 4 3 13 7 6 3 3 1 5 0 0 0 0 0 0
18 0 0 0 0 0 3 3 5 12 5 1 4 2 1 2 3 3 3 1 1 2 2 2 2 3 4 4 7 4 4 3 4 3 2 2 3 0 0 0 0 0 0 0
18 15 0 0 0 0 9 16 8 4 3 0 3 2 4 4 5 4 1 1 0 0 0 3 4 5 4 5 3 3 3 4 5 7 3 3 7 2 0 0 0 0 0 0
9 0 7 2 2 12 4 3 0 4 8 10 2 2 2 1 0 0 1 1 1 2 1 1 4 4 7 7 5 3 3 5 4 2 4 5 2 1 1 2 1 0 0 0
5 1 4 4 3 0 0 4 3 4 2 0 3 2 0 0 0 4 2 1 2 3 2 2 4 4 7 7 5 3 3 2 4 3 3 2 3 3 2 2 1 1 1 0
1 7 8 12 9 0 9 11 2 1 6 0 3 2 0 0 2 4 6 4 1 2 2 2 3 2 3 4 3 2 1 2 1 2 4 3 2 2 3 1 2 2 2 2
4 9 6 4 1 5 11 0 2 8 2 4 1 2 1 0 0 0 4 4 5 2 3 2 3 4 3 6 3 2 1 1 1 2 2 3 5 2 0 3 2 1 2 2
0 4 9 0 0 0 0 0 0 0 0 2 0 1 0 0 0 0 3 3 3 1 2 1 1 2 1 2 4 0 0 0 1 2 2 2 2 3 3 1 1 2 2 2
1 3 0 0 1 2 2 0 0 0 0 0 1 0 0 0 0 1 3 1 2 2 0 0 0 1 1 1 1 1 0 0 1 0 1 1 1 1 2 2 1 0 0 0
2 2 2 0 0 0 1 0 0 1 4 1 1 0 0 0 0 0 1 0 0 0 0 0 0 0 0 1 0 0 0 0 0 0 0 0 0 0 0 0 0 0 0 0
0 2 0 2 0 2 4 4 3 0 1 2 0 0 0 0 0 0 0 1 0 0 0 0 0 0 0 0 1 0 0 1 0 0 0 0 0 0 0 0 0 0 0 0
0 0 0 0 2 4 2 1 0 0 0 1 1 0 0 0 0 0 0 0 0 0 0 0 0 0 0 0 0 0 0 0 0 0 0 0 0 0 0 0 0 0 0 0
0 0 1 3 4 0 0 0 1 2 1 1 0 0 0 0 0 0 0 0 0 0 0 0 0 0 0 0 0 0 0 0 0 0 1 0 0 0 0 0 1 0 0 2
2 0 0 0 0 0 0 0 0 0 0 1 0 2 1 0 0 0 0 0 0 0 0 0 0 0 0 0 0 0 0 0 0 1 1 0 0 0 0 0 0 2 6 8
CIN
0 0 0 0 0 0 0 0 0 0 0 0 0 0 0 0 0 0 0 0 0 0 0 0 0 0 0 0 0 0 -359 -172 -162 -125 -143 -157 -177 -226 -262 -227 -211 -239 -187 -251
0 0 0 0 0 0 0 0 0 0 0 0 0 0 0 0 0 0 0 0 0 0 0 0 0 0 0 0 0 0 -404 -209 -162 -147 -177 -175 -206 -224 -270 -250 -227 -210 -210 -237
0 0 0 0 0 0 0 0 0 0 0 0 0 0 0 0 0 0 0 0 0 0 0 0 0 0 0 0 0 0 -104 -251 -188 -158 -151 -276 -273 -229 -188 -224 -181 -174 -207 -218
0 0 0 0 0 0 0 0 0 0 0 0 0 0 0 0 0 0 0 -75 0 0 0 0 0 0 0 0 0 0 0 -289 -206 -160 -157 -192 -216 -177 -165 -210 -225 -156 -163 -154
0 0 0 0 0 0 0 0 0 0 0 0 0 0 0 0 0 0 -17 -176 0 0 0 0 0 0 0 0 0 0 0 -387 -241 -160 -162 -209 -192 -225 -256 -222 -225 -195 -165 -153
0 0 0 0 0 0 0 0 0 0 0 -3 0 0 0 0 0 0 -208 0 0 0 0 0 0 0 0 0 0 0 -434 -353 -234 -177 -184 -199 -235 -245 -249 -218 -174 -195 -199 -165
0 0 0 0 0 0 0 0 -2 0 0 0 0 0 0 -31 -35 -108 0 0 0 0 0 0 0 0 0 0 0 0 -185 -106 -139 -147 -187 -199 -191 -271 -283 -265 -202 -179 -167 -165
0 0 0 0 0 0 0 0 -5 -1 0 0 -3 -13 -7 -3 0 0 0 0 0 0 0 0 0 0 0 0 0 0 0 -51 -35 -55 -104 -157 -243 -249 -233 -214 -209 -230 -173 -135
-1 0 0 0 0 0 -1 0 0 -24 0 0 0 0 -34 0 0 0 0 0 0 0 0 0 0 0 0 0 0 0 0 0 0 -61 -83 -134 -272 -321 -305 -288 -233 -194 -214 0
-4 0 0 0 0 0 -2 -4 -5 -3 -4 -2 0 -11 0 0 0 0 0 0 0 0 0 0 0 0 0 0 0 0 0 0 0 -254 -111 -212 -261 -283 -315 -364 0 0 0 0
0 0 0 0 0 0 -7 0 -3 -7 -19 -4 -3 -6 0 0 0 0 0 0 0 0 0 0 0 0 0 0 0 0 0 0 0 0 -30 -183 -245 -310 -333 -305 0 0 0 0
0 -11 0 0 0 0 0 0 -5 -4 -2 -18 -8 0 0 0 0 0 0 0 0 0 0 0 0 0 0 0 0 0 0 0 0 0 0 -257 -299 -306 -279 -107 0 0 0 0
-9 0 -1 0 0 0 0 0 -1 -1 0 -1 0 0 0 0 0 0 0 0 0 0 0 0 0 0 0 0 0 0 0 0 0 0 0 -209 0 -279 0 0 0 0 0 0
-6 0 0 0 0 0 0 0 0 0 0 0 0 0 0 0 0 0 0 0 0 0 0 0 0 0 0 0 0 0 0 0 0 0 0 0 0 -54 0 0 0 0 0 0
-8 0 0 0 0 0 0 0 0 0 0 0 0 0 0 0 0 0 0 0 0 0 0 0 0 0 0 0 0 0 0 0 0 0 0 0 0 0 0 0 0 0 0 0
0 0 0 0 0 0 0 0 0 0 0 0 0 0 0 0 0 0 0 0 0 0 0 0 0 0 0 0 0 0 0 0 0 0 0 0 0 0 0 0 0 0 0 0
0 0 0 0 0 0 0 0 0 0 0 0 0 0 0 0 0 0 0 0 0 0 0 0 0 0 0 0 0 0 0 0 0 0 0 0 0 0 0 0 0 0 0 0
0 0 0 0 0 0 0 0 0 0 0 0 0 0 0 0 0 0 0 0 0 0 0 0 0 0 0 0 0 0 0 0 0 0 0 0 0 0 0 0 0 0 0 0
0 0 0 -1 0 0 0 0 0 0 0 0 0 0 0 0 0 0 0 0 0 0 0 0 0 0 0 0 0 0 0 0 0 0 0 0 0 0 0 0 0 0 0 0
0 0 0 0 0 0 0 0 0 0 0 0 0 0 0 0 0 0 0 0 0 0 0 0 0 0 0 0 0 0 0 0 0 0 0 0 0 0 0 0 0 0 0 0
0 0 0 0 0 0 0 0 0 0 0 0 0 0 0 0 0 0 0 0 0 0 0 0 0 0 0 0 -1 -1 0 0 0 0 0 0 0 0 0 0 0 0 0 0
0 0 0 0 0 0 0 0 0 0 0 0 0 0 0 0 0 0 0 0 0 0 0 0 0 0 0 0 -1 0 -1 0 0 0 0 0 0 0 0 0 0 0 0 0
0 0 0 0 0 0 0 0 0 0 0 0 0 0 0 0 0 0 0 0 0 0 0 0 0 0 0 0 0 0 0 0 0 0 0 0 0 0 -1 0 0 0 0 0
0 0 0 0 0 0 0 0 0 0 0 0 0 0 0 0 0 0 0 0 0 0 0 0 0 0 0 0 0 0 0 0 0 0 0 0 0 0 0 0 0 0 0 0
0 0 0 0 0 0 0 0 0 0 0 0 0 0 0 0 0 0 0 0 0 0 0 0 0 0 0 0 0 0 0 0 0 0 0 0 0 0 0 0 0 0 -1 0
0 0 0 0 0 0 0 0 0 0 0 0 0 0 0 0 0 0 0 0 0 0 0 0 0 0 0 0 0 0 0 0 0 0 0 0 0 0 0 0 0 0 0 0
Wind_Speed
2 2 5 8 9 7 6 9 17 17 13 14 14 20 20 25 22 21 16 17 18 16 19 14 11 10 9 11 11 16 16 18 14 12 11 9 10 10 9 9 12 12 11 12
2 5 10 6 5 7 9 12 14 17 10 10 19 25 23 20 19 23 22 19 17 12 11 14 12 10 9 9 9 11 16 18 15 13 13 8 11 9 11 9 10 12 13 13
6 5 2 6 5 5 7 6 7 12 17 13 16 22 18 17 15 16 23 13 9 10 16 14 13 8 6 8 5 9 13 16 17 17 10 4 6 4 5 8 9 11 15 14
5 3 2 5 6 4 17 5 10 13 9 16 0 24 18 19 22 19 21 6 8 13 18 16 12 7 7 8 9 7 12 16 17 17 15 15 15 12 10 12 10 10 14 14
5 5 6 7 8 8 18 8 8 8 14 17 20 15 24 15 19 18 1 7 9 12 16 17 16 13 10 12 12 10 8 14 15 17 17 15 12 10 4 8 12 12 11 14
3 3 2 5 4 5 9 8 14 10 9 15 20 10 25 9 14 9 8 10 10 14 17 17 17 14 12 12 12 12 4 11 14 17 17 18 18 13 10 11 10 9 9 9
6 3 4 2 5 5 2 3 4 4 7 15 11 11 19 15 9 10 10 9 9 15 17 17 16 16 15 16 18 14 12 4 10 14 16 16 14 14 16 16 11 11 8 9
4 6 1 5 2 6 11 6 5 7 5 6 5 6 5 14 14 16 15 14 15 16 17 16 17 16 15 17 18 17 16 15 6 9 11 11 10 8 8 10 9 8 9 10
5 5 13 13 13 4 3 6 9 9 13 8 6 10 1 17 15 18 19 20 18 18 20 19 17 15 17 16 17 16 17 15 15 8 8 9 9 10 9 9 8 8 7 6
4 14 9 12 3 7 12 6 1 4 4 4 4 6 10 14 17 16 16 14 15 16 17 17 16 16 16 17 16 16 16 15 14 11 5 6 9 8 6 8 9 9 6 8
2 4 7 6 7 8 2 5 8 5 3 2 1 4 5 8 12 15 15 16 14 18 17 15 14 16 18 16 16 16 16 15 14 12 9 4 6 6 7 7 6 7 6 7
3 2 7 12 18 16 11 8 6 3 4 4 1 4 5 8 13 14 17 18 17 16 18 16 18 18 16 16 18 18 16 16 15 14 11 3 6 9 8 8 7 7 7 6
3 2 5 11 5 8 4 2 11 3 2 3 2 3 7 10 14 14 14 15 16 18 19 20 19 18 18 18 17 17 18 17 15 16 16 4 4 8 8 9 8 6 7 5
4 5 9 10 12 9 9 15 19 11 4 6 4 3 11 13 14 15 16 16 17 17 19 18 18 18 18 18 17 17 17 17 17 16 16 14 10 5 5 5 7 6 6 6
5 7 12 18 19 18 13 11 15 6 5 5 6 6 9 12 13 13 13 15 17 19 19 18 17 17 19 18 17 17 18 18 17 16 16 15 14 6 3 3 4 4 4 4
2 6 6 18 15 2 14 19 17 11 12 11 12 9 8 10 12 16 17 16 17 18 18 18 18 19 19 19 18 17 17 17 16 15 15 15 15 15 14 10 6 7 7 8
5 3 4 5 14 12 12 11 14 11 16 9 6 7 7 12 15 15 15 15 15 15 16 18 18 18 16 17 16 17 17 15 15 14 18 16 17 16 16 15 13 11 9 9
7 4 4 5 8 5 6 6 12 17 14 12 11 9 9 11 11 11 12 13 15 17 17 16 14 15 16 17 16 15 15 16 17 18 17 18 16 17 16 16 16 14 10 9
11 4 3 3 7 8 2 8 6 6 7 11 8 5 3 7 2 9 13 12 11 13 12 11 13 14 15 16 16 15 17 16 17 18 18 17 15 16 17 17 16 14 12 11
6 3 2 3 4 3 3 14 10 5 4 9 9 8 9 5 4 4 10 11 11 12 12 13 14 14 16 16 15 16 17 17 18 17 16 16 16 16 15 14 16 13 11 12
5 3 7 4 5 5 11 15 5 4 2 7 8 9 11 6 4 3 7 10 11 10 13 13 13 14 15 15 14 16 16 18 15 14 15 16 16 16 15 13 13 12 13 12
6 4 5 4 4 4 15 3 3 5 7 7 6 6 8 5 5 5 8 9 10 12 13 13 11 13 14 15 14 15 18 14 13 13 15 16 16 13 12 15 14 14 14 11
5 4 2 6 4 4 6 9 9 6 8 6 8 6 6 6 8 8 8 9 10 11 11 11 10 11 13 16 15 15 14 13 12 14 15 15 15 14 14 15 14 11 12 11
4 6 4 1 4 7 7 7 9 8 8 8 8 7 6 7 5 6 7 7 8 10 11 11 12 14 14 12 13 14 13 12 13 14 14 12 13 14 14 11 11 12 11 9
2 5 4 5 5 6 7 6 7 9 9 10 9 7 6 7 7 5 4 5 5 6 7 9 9 10 11 11 13 13 13 12 12 13 12 10 9 11 11 12 12 11 12 15
2 1 2 2 6 5 3 5 7 7 7 7 8 9 8 6 5 6 6 6 7 8 9 9 11 11 12 13 13 14 14 12 11 12 10 9 8 8 8 8 7 20 24 27
Wind_Direction
310 97 216 220 210 205 239 256 269 279 293 294 270 275 274 286 287 288 278 276 273 266 273 270 264 258 243 251 226 208 200 198 192 186 179 186 187 188 180 182 180 178 180 176
32 228 230 242 228 232 249 264 272 281 273 277 293 283 277 272 273 279 277 275 267 266 276 272 268 258 259 252 224 214 204 194 188 189 192 187 189 194 189 173 180 175 177 176
187 224 187 205 239 245 247 251 289 281 314 296 309 294 295 287 272 271 275 258 282 325 300 271 262 264 300 289 274 213 213 198 190 190 182 106 113 96 152 169 177 186 182 182
223 174 72 303 280 267 282 247 272 289 299 293 355 288 289 280 280 277 272 60 24 3 0 2 353 0 352 319 304 261 211 200 197 184 176 175 179 180 191 192 178 183 177 183
251 313 284 275 255 241 274 271 255 269 281 287 278 272 282 297 277 273 208 59 37 19 8 352 348 341 342 340 319 288 219 205 190 184 183 184 184 191 152 175 175 172 174 183
223 271 246 226 256 238 262 277 267 262 261 264 271 257 282 316 281 297 79 55 42 30 13 356 347 347 348 351 339 330 206 202 185 182 183 188 182 173 161 169 178 179 178 180
318 229 265 327 328 324 85 21 299 306 243 262 272 242 260 338 2 34 76 46 33 44 23 354 339 349 349 0 2 351 7 218 197 188 182 185 187 179 174 173 179 176 183 191
308 313 61 6 143 259 279 186 210 265 243 290 332 262 33 20 31 53 44 28 15 30 32 348 347 347 343 0 3 1 11 1 203 198 200 182 162 177 179 178 171 173 189 199
305 248 326 299 280 182 251 187 219 250 268 280 238 267 142 14 20 18 29 11 9 8 29 352 342 341 355 359 0 360 4 358 355 205 195 184 161 165 168 163 173 180 179 179
272 295 233 272 308 248 223 238 281 219 235 242 234 332 343 13 12 354 15 8 358 4 22 347 349 352 358 0 352 0 8 1 348 347 191 168 176 169 157 148 163 169 163 163
269 228 282 319 215 232 179 230 210 193 235 241 312 118 16 359 21 357 1 9 8 0 10 352 341 5 1 356 2 360 3 357 357 351 332 167 159 143 140 154 162 155 147 162
209 221 283 268 272 253 263 281 286 220 202 216 256 108 9 15 31 14 4 4 7 4 8 347 4 7 2 359 4 2 354 359 357 351 335 143 137 133 139 141 148 147 149 149
188 274 322 313 238 65 40 351 307 267 248 222 287 79 24 31 31 19 9 7 6 10 1 4 4 4 3 3 5 1 360 358 358 359 348 19 126 123 132 140 138 128 141 151
239 217 209 245 270 319 293 302 285 239 217 118 59 75 18 21 22 16 12 9 10 13 8 1 2 4 3 5 1 1 2 4 8 4 4 14 344 94 124 150 138 154 169 155
164 249 228 246 263 278 290 310 20 71 89 90 99 89 36 31 19 17 18 12 14 15 10 4 1 1 6 4 3 6 7 7 7 12 7 9 347 8 114 101 98 112 117 113
202 262 270 265 236 149 64 38 33 27 71 100 120 84 57 46 32 25 19 14 16 11 5 0 4 4 9 5 5 5 9 11 8 17 12 15 12 20 16 19 51 60 62 57
238 252 266 46 132 160 47 21 49 53 31 22 45 95 88 53 37 24 11 13 13 10 7 7 4 3 3 5 6 11 10 10 17 20 24 22 25 26 21 20 25 29 41 67
251 221 246 131 160 57 120 84 86 75 37 34 81 101 96 99 78 31 20 15 9 9 7 6 2 4 7 11 12 13 18 20 22 25 19 22 30 37 28 29 23 20 16 34
221 201 256 122 59 111 164 23 337 3 38 26 48 49 118 193 68 47 19 20 12 8 5 3 4 7 8 14 14 18 23 24 27 27 25 19 22 36 46 32 26 25 10 30
350 2 261 72 82 93 46 328 313 259 19 23 33 33 19 68 57 355 7 12 14 13 11 5 10 13 16 12 21 28 27 24 24 22 24 25 24 26 37 45 43 25 26 25
342 12 31 30 101 98 350 322 298 74 262 46 42 42 47 72 55 38 15 21 19 14 14 10 15 22 15 9 15 31 31 30 20 19 28 31 28 33 29 33 37 37 37 24
28 349 17 341 80 97 3 359 62 106 85 98 79 61 74 76 62 40 39 26 21 14 13 15 18 19 11 13 18 24 29 25 20 26 31 32 32 33 33 34 30 29 38 34
45 18 66 19 90 67 29 56 53 71 110 107 108 86 74 56 42 30 28 25 22 16 16 13 18 20 21 18 17 24 14 17 25 31 33 29 33 34 36 40 38 36 24 36
9 17 83 134 51 75 84 71 73 68 85 95 95 94 86 89 69 56 43 28 22 16 18 10 17 22 19 8 14 17 13 11 29 35 34 30 33 32 32 39 39 35 34 24
305 337 83 72 92 99 57 82 86 87 90 92 87 89 87 90 73 64 33 32 26 24 19 21 21 19 12 6 14 10 10 16 29 35 33 32 37 35 31 35 37 40 37 36
346 110 148 197 158 100 97 103 113 101 101 107 113 100 71 73 84 80 62 52 41 36 27 28 25 20 12 12 14 8 8 17 26 32 28 26 27 25 29 27 29 42 45 41